Jackson, MI

9:15 PM EDT on August 20, 2019 (GMT -0400)
Jackson County-Reynolds

Weather History for KJXN - June, 2019

Change the Weather History Date:

Thursday, June 6, 2019

  Actual Average Record
Temperature  
Mean Temperature 67 °F 65 °F  
Max Temperature 75 °F 76 °F 91 °F (1988)
Min Temperature 58 °F 53 °F 36 °F (1998)
Degree Days  
Heating Degree Days 0 3  
Month to date heating degree days 21 21  
Since 1 June heating degree days 21 21  
Since 1 July heating degree days 6657 6623  
Cooling Degree Days 2 3  
Month to date cooling degree days 11 14  
Year to date cooling degree days 21 51  
Since 1 June cooling degree days 11 14  
Growing Degree Days 17 (Base 50)    
Moisture  
Dew Point 60 °F    
Average Humidity 82    
Maximum Humidity 100    
Minimum Humidity 64    
Precipitation  
Precipitation 0.00 in 0.11 in 0.68 in (1963)
Month to date precipitation 1.71 0.62  
Year to date precipitation 13.72 11.22  
Sea Level Pressure  
Sea Level Pressure 29.89 in    
Wind  
Wind Speed 4 mph (NNE)    
Max Wind Speed 8 mph    
Max Gust Speed 12 mph    
Visibility 8 miles    
Events      
T = Trace of Precipitation, MM = Missing Value Source: NWS Daily Summary

Daily Weather History Graph

Daily Weather History Graph

Search for Another Location

Airport or City:

Astronomy

Jun. 06, 2019 Rise Set
Actual Time 6:02 AM EDT 9:11 PM EDT
Civil Twilight 5:27 AM EDT 9:45 PM EDT
Nautical Twilight 4:44 AM EDT 10:29 PM EDT
Astronomical Twilight 3:51 AM EDT 11:22 PM EDT
Moon 9:10 AM EDT (6/6) No Moon Set
Length of Visible Light 16h 17m
Length of Day
15h 09m
Waxing Crescent, 13% of the Moon is Illuminated
Jun 6
Waxing Crescent
Jun 10
First Quarter
Jun 17
Full
Jun 25
Last Quarter
Jul 2
New

Hourly Weather History & Observations

Time (EDT) Temp. Dew Point Humidity Pressure Visibility Wind Dir Wind Speed Gust Speed Precip Events Conditions
12:22 AM 64.0 °F 61.0 °F 90% 29.83 in 10.0 mi NNE 5.8 mph - N/A   Overcast
12:31 AM 64.0 °F 62.1 °F 93% 29.83 in 10.0 mi NNE 5.8 mph - N/A   Overcast
12:56 AM 64.0 °F 61.0 °F 90% 29.81 in 9.0 mi NE 4.6 mph - N/A   Overcast
1:56 AM 63.0 °F 61.0 °F 93% 29.81 in 8.0 mi North 5.8 mph - N/A   Overcast
2:56 AM 62.1 °F 60.1 °F 93% 29.82 in 6.0 mi NNW 3.5 mph - N/A   Overcast
3:56 AM 61.0 °F 60.1 °F 97% 29.83 in 7.0 mi NNE 3.5 mph - N/A   Overcast
4:56 AM 61.0 °F 60.1 °F 97% 29.85 in 4.0 mi North 3.5 mph - N/A   Overcast
5:07 AM 61.0 °F 60.1 °F 97% 29.86 in 2.5 mi NNE 4.6 mph - N/A   Overcast
5:19 AM 61.0 °F 60.1 °F 97% 29.87 in 3.0 mi NNW 3.5 mph - N/A   Overcast
5:56 AM 61.0 °F 59.0 °F 93% 29.86 in 4.0 mi NNW 4.6 mph - N/A   Overcast
6:40 AM 61.0 °F 59.0 °F 93% 29.88 in 5.0 mi NNE 4.6 mph - N/A   Overcast
6:56 AM 61.0 °F 59.0 °F 93% 29.87 in 5.0 mi NNE 3.5 mph - N/A   Overcast
7:26 AM 61.0 °F 59.0 °F 93% 29.88 in 6.0 mi NNE 5.8 mph - N/A   Overcast
7:56 AM 62.1 °F 59.0 °F 90% 29.89 in 6.0 mi ENE 3.5 mph - N/A   Overcast
8:27 AM 62.1 °F 59.0 °F 90% 29.91 in 7.0 mi NE 6.9 mph - N/A   Overcast
8:36 AM 62.1 °F 59.0 °F 90% 29.91 in 8.0 mi NE 4.6 mph - N/A   Overcast
8:56 AM 64.0 °F 59.0 °F 84% 29.90 in 8.0 mi Variable 3.5 mph - N/A   Overcast
9:56 AM 64.0 °F 59.0 °F 84% 29.91 in 10.0 mi NNE 6.9 mph - N/A   Overcast
10:56 AM 63.0 °F 59.0 °F 87% 29.92 in 10.0 mi NE 6.9 mph - N/A   Overcast
11:56 AM 66.0 °F 59.0 °F 78% 29.93 in 10.0 mi Variable 4.6 mph - N/A   Overcast
12:56 PM 68.0 °F 60.1 °F 76% 29.93 in 10.0 mi Variable 4.6 mph - N/A   Overcast
1:34 PM 69.1 °F 59.0 °F 70% 29.94 in 10.0 mi West 4.6 mph - N/A   Scattered Clouds
1:56 PM 70.0 °F 60.1 °F 71% 29.93 in 10.0 mi NE 4.6 mph - N/A   Mostly Cloudy
2:08 PM 70.0 °F 60.1 °F 71% 29.93 in 10.0 mi Variable 3.5 mph - N/A   Scattered Clouds
2:56 PM 72.0 °F 61.0 °F 68% 29.92 in 10.0 mi Calm Calm - N/A   Partly Cloudy
3:56 PM 73.9 °F 61.0 °F 64% 29.92 in 10.0 mi NNW 5.8 mph - N/A   Partly Cloudy
4:56 PM 73.9 °F 62.1 °F 66% 29.91 in 10.0 mi Variable 4.6 mph - N/A   Partly Cloudy
5:56 PM 73.0 °F 62.1 °F 68% 29.91 in 10.0 mi NE 6.9 mph - N/A   Partly Cloudy
6:56 PM 73.0 °F 62.1 °F 68% 29.91 in 10.0 mi NNE 5.8 mph - N/A   Clear
7:56 PM 71.1 °F 62.1 °F 73% 29.92 in 10.0 mi NNE 4.6 mph - N/A   Clear
8:56 PM 66.0 °F 60.1 °F 81% 29.92 in 10.0 mi NNE 5.8 mph - N/A   Clear
9:56 PM 64.9 °F 57.9 °F 78% 29.93 in 10.0 mi NE 4.6 mph - N/A   Clear
10:56 PM 64.0 °F 57.9 °F 80% 29.94 in 10.0 mi Calm Calm - N/A   Clear
11:56 PM 60.1 °F 57.9 °F 93% 29.95 in 10.0 mi Calm Calm - N/A   Clear